{"data":{"norad_id":69545,"epoch":"2026-09-19T10:14:53.504160Z","epoch_age_seconds":126109,"freshness":"FRESH","line1":"1 69545U 26134H   26262.42700815  .00003303  00000+0  20878-3 0  9996","line2":"2 69545  97.6945 332.9758 0016882 311.9328  48.0460 15.09640430 14515","mean_motion":15.0964043,"eccentricity":0.0016882,"inclination_deg":97.6945,"raan_deg":332.9758,"arg_perigee_deg":311.9328,"mean_anomaly_deg":48.046,"bstar":0.00020878,"rev_number":1451,"period_min":95.386952507625,"perigee_km":525.62323858958,"apogee_km":548.97251290405,"semimajor_km":6915.4348757468,"source":"CELESTRAK","updated_at":"2026-09-20T09:00:24.950614Z"}}